Location: All Nations United Methodist Church
(33.0215°N, 96.7483°W)
Time: 15:44:39
(UTC+00:00)

SL-8 R/B - Pass Details

Date: 24 January 2021
Orbit: 657 x 667 km, 48.4° (Epoch: 07 March)

Event Time Altitude Azimuth Distance (km) Brightness Sun altitude
Exits shadow 12:35:33 14° 303° (WNW) 1,848 5.4 -11.0°
Maximum altitude 12:39:41 66° 223° (SW) 725 3.8 -10.2°
Drops below altitude 10° 12:44:26 10° 141° (SE) 2,074 7.2 -9.2°
Sets 12:46:47 0° 138° (SE) 2,982 8.2 -8.7°
